Regional Weather Roundup
Issued by NWS

Home | Current Version | Previous Version | Text Only | Print | Product List | Glossary On
Versions: 1 2 3 4 5 6 7 8 9 10 11 12 13 14 15 16 17 18 19 20 21 22 23 24 25 26 27 28 29 30 31 32 33 34 35 36 37 38 39 40 41 42 43 44 45 46 47 48 49 50
000
ASUS43 KTOP 240859
RWRKS

WEATHER ROUNDUP FOR KANSAS
NATIONAL WEATHER SERVICE GOODLAND KS
400 AM CDT SUN MAY 24 2015

NOTE:  "FAIR" INDICATES FEW OR NO CLOUDS BELOW 12,000 FEET WITH NO
SIGNIFICANT WEATHER AND/OR OBSTRUCTIONS TO VISIBILITY.

KSZ001>006-013>018-027>032-041>047-241000-
NORTHWEST KANSAS

CITY           SKY/WX    TMP DP  RH WIND       PRES   REMARKS
GOODLAND       CLOUDY    52  51  97 S3        29.90F
HAYS           CLOUDY    57  52  82 SE5       29.88F VSB 1/2
HILL CITY      CLOUDY    58  56  93 CALM      29.90F
RUSSELL        FOG       56  56 100 CALM      29.88S VSB 3/4
$$

KSZ061>065-074>080-084>089-241000-
SOUTHWEST KANSAS

CITY           SKY/WX    TMP DP  RH WIND       PRES   REMARKS
DODGE CITY     CLOUDY    57  56  96 CALM      29.89R FOG
ELKHART          N/A     56  54  94 SE6         N/A
GARDEN CITY    CLOUDY    56  55  97 E6        29.88F FOG
GREAT BEND     CLOUDY    57  54  88 E3        29.88S
LIBERAL        CLOUDY    57  54  88 NW7       29.91R
$$

KSZ066>073-081>083-090>101-241000-
SOUTHEAST KANSAS

CITY           SKY/WX    TMP DP  RH WIND       PRES   REMARKS
CHANUTE        CLOUDY    64  63  96 S10       29.87S
COFFEYVILLE    LGT RAIN  63  63 100 S10       29.88F
HUTCHINSON     CLOUDY    58  55  90 W5        29.87S
NEWTON         CLOUDY    57  54  88 W5        29.90R
PARSONS        CLOUDY    64  64 100 S7        29.89F FOG
WICHITA INTL   CLOUDY    61  60  97 CALM      29.87R
WICHITA JABRA  CLOUDY    60  58  92 W3        29.87R
WICHITA MCCONL CLOUDY    61  59  94 NW3       29.87F
WINFIELD       CLOUDY    61  60  97 S10       29.84F
$$

KSZ007>012-019>026-033>040-048>060-102>105-241000-
NORTHEAST KANSAS

CITY           SKY/WX    TMP DP  RH WIND       PRES   REMARKS
CONCORDIA      CLOUDY    60  59  96 CALM      29.86F FOG
EMPORIA        CLOUDY    62  61  96 S5        29.88R
LAWRENCE       CLOUDY    63  61  93 E5        29.88F
MANHATTAN      CLOUDY    63  62  97 CALM      29.84F
OLATHE IND     CLOUDY    63  61  93 SE17G23   29.88F
OLATHE EXE     LGT RAIN  62  61  96 SE7       29.87F
SALINA         CLOUDY    60  58  92 W5        29.88R
TOPEKA BILLARD CLOUDY    64  63  96 SE6       29.87F
TOPEKA FORBES  CLOUDY    65  63  93 SE7       29.86F
$$



USA.gov is the U.S. government's official web portal to all federal, state and local government web resources and services.